date,batt_volt,AirTemp_C,Solar_kW,RH,Manual_BP,StationID,WS_ms,PTemp,WS_15min_max,Prog_Sig,Solar_Raw,Bar_mbar,Solar_MJ,Max_WS_2min,Pressure_Raw,Rain_mm,WD_15min_ave,Max_AirTemp_1min,WindDir,WS_15min_med,WS_15min_ave,Elevation_Correction
2023-06-01T00:03:05Z,13.26146,13.13453,0.00289306,53.67672,0,1156,5.2724,14.22854,7.5068,43690,0.2025142,1017.301,1.44653e-05,6.507,1015.5,0,223.173817195,13.27,252.963,5.2822,5.23896469412,1.80078
2023-06-01T00:18:06Z,13.28017,13.14298,0.0004822207,53.61746,0,1156,5.5076,13.70665,7.898799,43690,0.03375545,1017.301,2.411104e-06,7.076,1015.5,0,226.962752228,13.24,222.0576,4.9196,4.95972234706,1.80078
2023-06-01T00:33:06Z,13.28704,12.80769,0.0,57.14619,0,1156,4.7236,13.23446,7.996799,43690,0.0,1017.301,0.0,6.527,1015.5,0,225.797565906,12.98,237.9559,4.9588,4.98912234118,1.80078
2023-06-01T00:48:06Z,13.29353,12.74556,0.0,58.23706,0,1156,6.6052,12.85943,7.5068,43690,0.0,1017.301,0.0,7.507001,1015.5,0,221.505264002,12.78,234.251,4.9784,5.08619997059,1.80078
2023-06-01T01:03:06Z,13.29908,12.50848,0.0,58.98305,0,1156,4.9784,12.5341,7.271599,43690,0.0,1018.045,0.0,6.135,1016.244,0,222.126006698,12.51,210.8098,5.39,5.34053880588,1.80078
2023-06-01T01:18:06Z,13.3046,12.50848,0.0,58.50848,0,1156,6.5268,12.3014,8.1536,43690,0.0,1018.045,0.0,6.409,1016.244,0,224.476772651,12.54,227.9702,5.2528,5.17024938824,1.80078
2023-06-01T01:33:11Z,13.3046,12.33898,0.0,60.20339,0,1156,7.016799,12.14099,7.546,43690,0.0,1018.045,0.0,6.997,1016.244,0,224.599748248,12.44,223.3492,5.6252,5.61901049708,1.80078
2023-06-01T01:48:10Z,13.3046,12.16949,0.0,62.91525,0,1156,6.4484,12.02351,8.231999,43690,0.0,1018.045,0.0,7.801001,1016.244,0,223.952069782,12.34,223.3251,6.389599,6.38936933529,1.80078
2023-06-01T02:03:09Z,13.31012,12.16949,0.0,62.98305,0,1156,7.467599,11.93314,8.2712,43690,0.0,1017.069,0.0,8.269999,1015.268,0,223.257923944,12.17,212.2539,6.1152,6.16858109412,1.80078
2023-06-01T02:18:08Z,13.31012,11.83051,0.0,67.32204,0,1156,6.6248,11.84051,8.5848,43690,0.0,1017.069,0.0,7.507001,1015.268,0,220.776568842,11.93,230.7139,6.6542,6.65293162353,1.80078
2023-06-01T02:33:07Z,13.31564,10.67797,0.0,73.8983,0,1156,5.7232,11.61007,6.9972,43690,0.0,1017.069,0.0,6.35,1015.268,0,214.254340994,10.92,209.8471,5.7526,5.79502821176,1.80078
2023-06-01T02:48:12Z,13.32668,10.57627,0.0,76.06779,0,1156,4.9196,11.26666,6.5072,43690,0.0,1017.069,0.0,5.684,1015.268,0,210.482498972,10.71,205.1298,5.488,5.46633684211,1.80078
2023-06-01T03:03:11Z,13.33876,10.3762,0.0,77.97125,0,1156,4.0376,10.9481,6.0172,43690,0.0,1017.179,0.0,5.468,1015.378,0,216.061395733,10.38,215.8061,5.1254,5.02693882353,1.80078
2023-06-01T03:18:10Z,13.3471,10.18542,0.0,79.85585,0,1156,5.3312,10.62955,5.4684,43690,0.0,1017.179,0.0,5.468,1015.378,0,215.505488163,10.32,220.194,4.7628,4.74216235294,1.80078
2023-06-01T03:33:08Z,13.35328,10.55949,0.0,77.34822,0,1156,4.8216,10.40362,5.6448,43690,0.0,1017.179,0.0,5.253,1015.378,0,222.342717207,10.59,223.0877,4.7236,4.72025647059,1.80078
2023-06-01T03:48:14Z,13.35329,10.32214,0.0,79.45065,0,1156,3.9788,10.26807,5.4684,43690,0.0,1017.179,0.0,4.528,1015.378,0,222.604017598,10.36,220.0061,4.214,4.29721403509,1.80078
2023-06-01T04:03:13Z,13.35881,10.42386,0.0,76.73786,0,1156,4.2336,10.10992,5.8212,43690,0.0,1017.325,0.0,5.018,1015.524,0,214.643745502,10.36,208.5218,4.41,4.40216,1.80078
2023-06-01T04:18:10Z,13.35881,10.38995,0.0,76.90741,0,1156,5.6644,10.01955,6.3504,43690,0.0,1017.325,0.0,5.704,1015.524,0,213.118028485,10.39,214.5408,5.1352,5.15963797468,1.80078
2023-06-01T04:33:12Z,13.35881,10.52559,0.0,76.09358,0,1156,4.8608,9.974369,7.016799,43690,0.0,1017.325,0.0,6.233,1015.524,0,213.479020392,10.59,213.4333,5.4684,5.47923764118,1.80078
2023-06-01T04:48:14Z,13.35881,10.11868,0.0,79.2811,0,1156,3.4692,9.951778,6.5464,43690,0.0,1017.325,0.0,4.41,1015.524,0,215.154296758,10.19,224.1953,4.5864,4.63989646471,1.80078
2023-06-01T05:03:11Z,13.36433,10.22041,0.0,78.39945,0,1156,4.4492,9.83881,4.9,43690,0.0,1016.999,0.0,4.528,1015.198,0,219.853900547,10.32,214.6371,3.5672,3.56824378698,1.80078
2023-06-01T05:18:14Z,13.36433,10.15258,0.0,79.41674,0,1156,3.2732,9.728107,4.7628,43690,0.0,1016.999,0.0,3.92,1015.198,0,225.585811921,10.32,229.3957,3.43,3.42158352941,1.80078
2023-06-01T05:33:15Z,13.36986,9.983036,0.0,80.87486,0,1156,4.6452,9.615146,4.6844,43690,0.0,1016.999,0.0,4.684,1015.198,0,220.803738949,10.08,210.159,4.0572,4.03275764706,1.80078
2023-06-01T05:48:12Z,13.36986,10.05086,0.0,81.7226,0,1156,4.1748,9.524777,4.7432,43690,0.0,1016.999,0.0,4.136,1015.198,0,219.610676342,9.95,222.9193,3.822,3.83359763314,1.80078
2023-06-01T06:03:15Z,13.36986,10.28822,0.0,81.48524,0,1156,5.3312,9.459255,5.3704,43690,0.0,1017.08,0.0,5.214,1015.28,0,220.396479752,10.36,210.159,3.9788,3.94121411765,1.80078
2023-06-01T06:18:16Z,13.36986,10.32214,0.0,82.0617,0,1156,3.6652,9.502186,5.8996,43690,0.0,1017.08,0.0,4.9,1015.28,0,215.141152836,10.42,225.9047,4.41,4.40665647059,1.80078
2023-06-01T06:33:12Z,13.36986,10.79687,0.0,81.0105,0,1156,5.2136,9.592556,6.9776,43690,0.0,1017.08,0.0,6.86,1015.28,0,223.307618981,10.97,226.338,4.9784,4.95323313609,1.80078
2023-06-01T06:48:14Z,13.35881,10.8986,0.0,82.36689,0,1156,6.0172,9.771038,6.389599,43690,0.0,1017.08,0.0,5.802,1015.28,0,225.230285309,10.86,233.4886,5.3116,5.24265411176,1.80078
2023-06-01T07:03:15Z,13.35881,10.5595,0.0,83.96065,0,1156,4.9,9.92918,6.4484,43690,0.0,1016.755,0.0,5.978,1014.954,0,225.21086683,10.8,217.7188,5.2234,5.23908,1.80078
2023-06-01T07:18:16Z,13.35881,10.32214,0.0,85.5205,0,1156,4.5668,9.99696,6.2132,43690,0.0,1016.755,0.0,5.743,1014.954,0,227.234341618,10.49,256.7219,5.0764,5.03985176471,1.80078
2023-06-01T07:33:18Z,13.35881,10.25431,0.0,86.97862,0,1156,3.8416,9.99696,5.782,43690,0.0,1016.755,0.0,4.92,1014.954,0,228.877743877,10.29,218.2726,4.4884,4.50338823529,1.80078
2023-06-01T07:48:13Z,13.36433,10.25431,0.0,87.41945,0,1156,4.3708,9.92918,5.3116,43690,0.0,1016.755,0.0,3.979,1014.954,0,231.266417609,10.32,234.8369,3.6848,3.6415408284,1.80078
2023-06-01T08:03:15Z,13.36986,10.32214,0.0,87.14817,0,1156,3.1948,9.861408,5.6056,43690,0.0,1016.592,0.0,4.978,1014.791,0,231.901967397,10.36,220.9691,3.5476,3.58126588235,1.80078
2023-06-01T08:18:17Z,13.36433,10.42386,0.0009650047,87.14817,0,1156,4.2532,9.816219,5.5468,43690,0.06755033,1016.592,4.825024e-06,5.508,1014.791,0,229.716074123,10.42,252.8457,4.2042,4.12314823471,1.80078
2023-06-01T08:33:18Z,13.36433,10.38995,0.004825024,86.40215,0,1156,5.194,9.816219,6.1936,43690,0.3377516,1016.592,2.412512e-05,5.782,1014.791,0,225.254038573,10.42,220.5839,4.7334,4.72832705882,1.80078
2023-06-01T08:48:15Z,13.36433,10.38995,0.01302757,85.62223,0,1156,4.312,9.83881,5.8212,43690,0.9119295,1016.592,6.513782e-05,5.37,1014.791,0,222.934766142,10.49,225.4472,4.4492,4.43655857988,1.80078
2023-06-01T09:03:16Z,13.36433,10.42386,0.02364262,85.96133,0,1156,3.8416,9.883999,5.5076,43690,1.654983,1016.267,0.0001182131,5.331,1014.466,0,224.083740557,10.49,207.4625,4.4492,4.40769411765,1.80078
2023-06-01T09:18:14Z,13.35881,10.72905,0.0617603,85.48658,0,1156,3.7044,9.99696,5.488,43690,4.323221,1016.267,0.0003088015,4.782,1014.466,0,230.397526559,10.63,197.5914,3.8024,3.75925680473,1.80078
2023-06-01T09:33:18Z,13.34224,11.10206,0.09167546,82.53644,0,1156,4.9784,10.44881,7.4284,43690,6.417282,1016.267,0.0004583772,7.428001,1014.466,0,222.855125517,11.1,198.2173,4.0278,4.13041175882,1.80078
2023-06-01T09:48:15Z,13.32568,11.1012,0.1288168,83.1115,0,1156,4.998,11.17629,6.9188,43690,9.017173,1016.267,0.0006440838,4.841,1014.466,0,215.224457749,11.17,207.5553,5.1548,5.11536804734,1.80078
2023-06-01T10:03:18Z,13.29986,11.3246,0.169308,82.30919,0,1156,5.1156,11.90828,6.0564,43690,11.85156,1016.224,0.0008465399,6.056,1014.423,0,212.234345228,11.39,214.7677,4.802,4.73028705882,1.80078
2023-06-01T10:18:15Z,13.28806,11.6611,0.2078886,80.94929,0,1156,4.8412,12.67418,5.6448,43690,14.5522,1016.224,0.001039443,4.841,1014.423,0,216.275397633,11.7,215.9848,4.3316,4.32139408284,1.80078
2023-06-01T10:33:18Z,13.27148,11.79664,0.2532284,80.88139,0,1156,5.8996,13.46943,5.8996,43690,17.72598,1016.224,0.001266142,5.37,1014.423,0,215.180544248,11.93,211.2191,4.3512,4.30462117647,1.80078
2023-06-01T10:48:19Z,13.25329,11.85688,0.3009698,81.31022,0,1156,4.3904,14.1585,5.9584,43690,21.06789,1016.224,0.001504849,5.076,1014.423,0,217.30714817,11.93,225.7953,4.802,4.82782588235,1.80078
2023-06-01T11:03:16Z,13.24118,12.39474,0.3519932,79.13436,0,1156,4.214,14.87694,5.4292,43690,24.63952,1015.68,0.001759966,4.743,1013.88,0,214.474352999,12.29,229.4097,4.2728,4.24079053254,1.80078
2023-06-01T11:18:19Z,13.2229,12.42307,0.3958672,79.3293,0,1156,4.8412,15.57957,5.7036,43690,27.71071,1015.68,0.001979336,4.88,1013.88,0,213.514533593,12.63,228.6635,4.5962,4.63194117647,1.80078
2023-06-01T11:33:21Z,13.2118,12.4907,0.4426384,79.90515,0,1156,4.2336,16.21668,5.3116,43690,30.98469,1015.68,0.002213192,4.9,1013.88,0,218.638084611,12.49,235.0868,4.3904,4.38659529412,1.80078
2023-06-01T11:48:17Z,13.20248,12.67985,0.4873956,79.27386,0,1156,5.3312,16.76116,5.8996,43690,34.1177,1015.68,0.002436978,5.821,1013.88,0,216.542122556,12.85,216.6229,4.8412,4.80907455621,1.80078
2023-06-01T12:03:19Z,13.19082,12.81298,0.5292752,80.21882,0,1156,5.0568,17.21075,5.488,43690,37.04927,1015.851,0.002646376,5.135,1014.05,0,210.207339481,12.78,204.3707,4.8804,4.83428235294,1.80078
2023-06-01T12:18:22Z,13.17422,13.18432,0.5711881,78.01497,0,1156,4.1356,17.81623,5.2528,43690,39.98316,1015.851,0.00285594,5.135,1014.05,0,204.539336861,13.22,206.0012,4.4198,4.36515058824,1.80078
2023-06-01T12:33:19Z,13.1687,13.25206,0.6150501,78.01494,0,1156,3.234,18.37878,6.1544,43690,43.05351,1015.851,0.003075251,6.154,1014.05,0,211.942112271,13.25,206.891,4.2728,4.28138224852,1.80078
2023-06-01T12:48:21Z,13.15738,13.59081,0.6512012,77.20193,0,1156,3.1948,18.89389,5.0176,43690,45.58408,1015.851,0.003256006,4.626,1014.05,0,206.936119485,13.59,222.9334,3.9298,3.78833411765,1.80078
2023-06-01T13:03:19Z,13.144,14.22474,0.6863882,75.08822,0,1156,4.8216,19.44289,6.1936,43690,48.04718,1015.742,0.003431941,6.194,1013.942,0,202.261640246,14.19,219.2383,3.8808,3.90353136095,1.80078
2023-06-01T13:18:21Z,13.13123,14.52135,0.720964,74.09486,0,1156,6.8992,19.9693,5.5468,43690,50.46748,1015.742,0.00360482,5.155,1013.942,0,207.265477777,14.66,237.5746,4.3414,4.32883294118,1.80078
2023-06-01T13:33:22Z,13.13116,15.09654,0.7561407,72.77348,0,1156,4.3316,20.34207,6.8992,43690,52.92985,1015.742,0.003780703,6.86,1013.942,0,209.569905129,14.99,213.6252,4.8412,4.76187764706,1.80078
2023-06-01T13:48:23Z,13.12013,15.43518,0.7874763,70.50461,0,1156,4.7628,20.74421,6.879599,43690,55.12334,1015.742,0.003937381,6.409,1013.942,0,209.290143776,15.54,219.1792,4.9784,4.93032233529,1.80078
2023-06-01T14:03:25Z,13.11461,15.40131,0.8100504,70.36915,0,1156,4.9,21.12377,6.86,43690,56.70353,1016.22,0.004050252,5.253,1014.419,0,209.099883218,15.54,202.7336,4.7726,4.7646447,1.80078
2023-06-01T14:18:25Z,13.1091,15.94264,0.8408326,69.04785,0,1156,3.5672,21.47847,5.9192,43690,58.85828,1016.22,0.004204163,4.763,1014.419,0,208.343147459,16.15,204.6793,3.7632,3.73829647059,1.80078
2023-06-01T14:33:21Z,13.09439,15.79034,0.8634781,68.24838,0,1156,2.94,21.86255,5.9584,43690,60.44347,1016.22,0.00431739,4.018,1014.419,0,203.330765571,15.99,188.9461,3.8808,3.81643313609,1.80078
2023-06-01T14:48:23Z,13.08262,15.61954,0.8841977,70.41305,0,1156,3.3712,22.25113,4.6844,43690,61.89384,1016.22,0.004420989,3.646,1014.419,0,199.212607279,15.86,204.9964,3.0576,2.97862352882,1.80078
2023-06-01T15:03:25Z,13.0826,16.33041,0.9015443,67.63711,0,1156,2.8224,22.44769,4.4884,43690,63.1081,1015.883,0.004507722,3.783,1014.083,0,206.929451249,16.36,208.4333,3.4104,3.37569647059,1.80078
2023-06-01T15:18:24Z,13.07709,15.17943,0.9139359,72.81654,0,1156,2.842,22.64425,5.0176,43690,63.97551,1015.883,0.00456968,4.92,1014.083,0,202.928738441,15.28,202.1361,3.43,3.39725647,1.80078
2023-06-01T15:33:27Z,13.0826,15.31484,0.9260229,72.30874,0,1156,3.2732,22.44769,4.5668,43690,64.8216,1015.883,0.004630114,4.567,1014.083,0,207.152017619,15.35,206.1981,3.3124,3.14245646882,1.80078
2023-06-01T15:48:24Z,13.08811,15.61951,0.9361933,72.13949,0,1156,2.352,22.25113,4.3316,43690,65.53353,1015.883,0.004680966,3.704,1014.083,0,207.259074637,15.79,206.2461,3.0184,2.8538295858,1.80078
2023-06-01T16:03:26Z,13.08811,15.21328,0.9376818,73.35817,0,1156,1.6464,22.02973,3.7436,43690,65.63772,1014.908,0.004688409,3.45,1013.108,0,211.169124168,15.18,201.1987,2.646,2.44227529412,1.80078
2023-06-01T16:18:28Z,13.09363,16.2627,0.9410557,68.58498,0,1156,4.606,21.88965,4.606,43690,65.8739,1014.908,0.004705279,4.528,1013.108,0,210.130805848,16.13,193.2191,2.7636,2.53727764706,1.80078
2023-06-01T16:33:24Z,13.09363,16.60123,0.9352735,69.5667,0,1156,2.7636,21.94614,5.684,43690,65.46915,1014.908,0.004676368,5.684,1013.108,0,199.38547663,16.33,225.6425,3.3124,3.34614911243,1.80078
2023-06-01T16:48:25Z,13.0826,16.49967,0.9275639,66.21532,0,1156,3.4692,22.02973,5.1352,43690,64.92947,1014.908,0.00463782,5.135,1013.108,0,202.779449455,16.6,191.3443,2.9302,2.91129176471,1.80078
2023-06-01T17:03:27Z,13.0826,16.60123,0.9203163,67.16318,0,1156,0.0392,22.30761,3.626,43690,64.42214,1015.234,0.004601582,3.195,1013.433,0,187.253741309,16.5,196.0792,2.2736,1.94224470412,1.80078
2023-06-01T17:18:28Z,13.07157,16.36426,0.9134716,67.56942,0,1156,4.8412,22.69847,5.292,43690,63.94301,1015.234,0.004567358,4.9,1013.433,0,205.345565556,16.47,204.5156,3.0772,2.79103999941,1.80078
2023-06-01T17:33:24Z,13.07157,16.43197,0.8984111,68.48342,0,1156,5.1352,22.86791,5.9584,43690,62.88878,1015.234,0.004492055,5.958,1013.433,0,206.620110947,16.36,208.3853,4.41,4.33995029586,1.80078
2023-06-01T17:48:27Z,13.07157,16.46582,0.8805365,66.55384,0,1156,3.7828,22.92439,5.4488,43690,61.63756,1015.234,0.004402682,4.39,1013.433,0,206.360959384,16.8,217.3264,4.0572,3.95136,1.80078
2023-06-01T18:03:25Z,13.07157,16.43197,0.8555018,66.51998,0,1156,3.7632,22.95376,4.9196,43690,59.88513,1014.584,0.004277509,4.665,1012.783,0,211.474710758,16.8,211.7502,3.5868,3.55467455621,1.80078
2023-06-01T18:18:28Z,13.07157,16.66893,0.8285383,66.0799,0,1156,3.724,22.98088,5.0372,43690,57.99768,1014.584,0.004142692,3.998,1012.783,0,214.369721564,16.57,199.7566,3.2144,3.14545411765,1.80078
2023-06-01T18:33:30Z,13.07157,17.48139,0.799123,63.33786,0,1156,3.234,23.06672,4.3316,43690,55.93861,1014.584,0.003995615,3.783,1012.783,0,206.637028174,17.48,204.8281,3.0772,3.02220470529,1.80078
2023-06-01T18:48:27Z,13.06606,17.34598,0.7740943,65.369,0,1156,2.9008,23.23843,4.1944,43690,54.1866,1014.584,0.003870471,4.194,1012.783,0,212.16868774,17.24,207.4479,3.0968,2.91123786982,1.80078
2023-06-01T19:03:30Z,13.06606,17.31213,0.7423079,62.66081,0,1156,3.5672,23.23843,4.7432,43690,51.96155,1014.177,0.003711539,4.214,1012.377,0,205.432066355,17.35,204.3233,3.5182,3.47519529412,1.80078
2023-06-01T19:18:27Z,13.06055,17.65065,0.7100324,61.61138,0,1156,2.9204,23.26554,4.802,43690,49.70227,1014.177,0.003550162,4.273,1012.377,0,202.271482532,17.65,219.2011,3.6456,3.59723786923,1.80078
2023-06-01T19:33:29Z,13.06606,18.09074,0.6738835,61.37442,0,1156,4.2728,23.32428,4.802,43690,47.17185,1014.177,0.003369418,4.136,1012.377,0,205.692278367,17.92,203.2898,3.626,3.60559294118,1.80078
2023-06-01T19:48:31Z,13.06055,17.92147,0.6339088,59.98647,0,1156,3.0968,23.35139,4.5276,43690,44.37361,1014.177,0.003169544,3.685,1012.377,0,207.674283718,17.99,219.1771,2.9988,2.85767999941,1.80078
2023-06-01T20:03:28Z,13.06606,17.27828,0.5973146,64.5904,0,1156,3.7632,23.32428,5.0176,43690,41.81203,1013.852,0.002986573,5.018,1012.052,0,201.468617016,17.38,195.4062,3.7044,3.60408047337,1.80078
2023-06-01T20:18:31Z,13.07157,17.71836,0.5602111,63.27015,0,1156,3.5476,23.23843,4.9196,43690,39.21478,1013.852,0.002801055,4.096,1012.052,0,196.775243719,17.85,209.1304,3.6652,3.49537176471,1.80078
2023-06-01T20:33:28Z,13.07157,16.97361,0.536616,66.18146,0,1156,2.6852,23.06672,4.3316,43690,37.56312,1013.852,0.00268308,4.038,1012.052,0,202.962585745,17.01,198.2905,3.4888,3.43556686391,1.80078
2023-06-01T20:48:31Z,13.0826,16.16115,0.2779598,68.17875,0,1156,3.9396,22.67136,4.6452,43690,19.45719,1013.852,0.001389799,4.253,1012.052,0,203.964668943,16.26,202.3765,3.6946,3.63983529412,1.80078
2023-06-01T21:03:29Z,13.09914,15.34869,0.2028564,69.73596,0,1156,5.0764,21.6434,6.0368,43690,14.19995,1012.634,0.001014282,5.684,1010.833,0,208.39057997,15.48,192.4019,3.92,4.07297278107,1.80078
2023-06-01T21:18:33Z,13.12449,15.53307,0.2491292,70.56763,0,1156,3.9984,20.5567,6.7228,43690,17.43904,1012.634,0.001245646,6.213,1010.833,0,199.728450273,15.53,205.0762,5.2528,5.17636,1.80078
2023-06-01T21:33:30Z,13.13112,15.53665,0.1513252,70.40286,0,1156,4.9196,19.91733,5.9388,43690,10.59276,1012.634,0.0007566259,5.586,1010.833,0,206.344492736,15.71,209.0085,4.7824,4.73206627219,1.80078
2023-06-01T21:48:34Z,13.14218,14.8256,0.08867991,72.70573,0,1156,4.9784,19.15371,5.586,43690,6.207594,1012.634,0.0004433995,5.821,1010.833,0,205.0902775,14.86,197.9969,4.6746,4.54650823529,1.80078
2023-06-01T22:03:31Z,13.16697,14.76969,0.1060428,72.1456,0,1156,4.7824,18.32682,6.0368,43690,7.422992,1012.895,0.0005302137,5.547,1011.094,0,204.982043213,14.87,217.3747,4.606,4.58210887574,1.80078
2023-06-01T22:18:34Z,13.16864,15.25039,0.1812373,71.13784,0,1156,3.5868,17.89304,5.1744,43690,12.68661,1012.895,0.0009061862,4.92,1011.094,0,209.350882167,15.35,206.6012,4.2336,4.27568235294,1.80078
2023-06-01T22:33:32Z,13.17421,14.97966,0.09447474,71.68019,0,1156,5.1156,17.68971,5.9192,43690,6.613232,1012.895,0.0004723737,5.802,1011.094,0,208.067100782,15.01,217.4494,4.6844,4.67790532544,1.80078
2023-06-01T22:48:34Z,13.17973,14.60703,0.103151,72.76421,0,1156,5.3116,17.46379,6.5268,43690,7.22057,1012.895,0.000515755,6.252,1011.094,0,208.633517164,14.64,204.2692,5.2528,5.14845882353,1.80078
2023-06-01T23:03:32Z,13.19076,14.0989,0.06892799,74.18697,0,1156,4.6648,17.06163,6.0564,43690,4.82496,1012.98,0.00034464,5.116,1011.179,0,206.752527462,14.2,213.2885,4.8608,4.87135384615,1.80078
2023-06-01T23:18:35Z,13.2022,13.76074,0.04241989,76.22034,0,1156,4.8608,16.51264,5.2136,43690,2.969392,1012.98,0.0002120994,5.214,1011.179,0,209.119633901,13.76,214.7821,4.4688,4.46799294118,1.80078
2023-06-01T23:33:33Z,13.21971,13.25441,0.01880191,77.67961,0,1156,5.88,15.94557,6.468,43690,1.316134,1012.98,9.400957e-05,6.037,1011.179,0,209.65327828,13.42,204.4468,5.2332,5.25256804734,1.80078
2023-06-01T23:48:32Z,13.23362,12.86248,0.006750421,79.93756,0,1156,5.1352,15.36042,6.8404,43690,0.4725295,1012.98,3.375211e-05,5.586,1011.179,0,206.774074557,13.0,214.151,5.586,5.60583194083,1.80078
2023-06-02T00:03:36Z,13.25042,12.72787,0.001928707,80.92169,0,1156,4.2336,14.7798,5.3508,43690,0.1350095,1012.502,9.643534e-06,4.861,1010.701,0,212.097016718,12.76,210.1849,4.6158,4.54812235294,1.80078
2023-06-02T00:18:35Z,13.25594,12.79586,0.0,80.98979,0,1156,3.9788,14.34828,4.9392,43690,0.0,1012.502,0.0,4.9,1010.701,0,214.045191234,12.9,217.1631,4.018,3.88543905325,1.80078
2023-06-02T00:33:33Z,13.25803,12.70184,0.0,81.2049,0,1156,5.9976,14.0862,6.487599,43690,0.0,1012.502,0.0,6.488,1010.701,0,212.481034646,12.77,212.3338,5.4684,5.35114792308,1.80078
2023-06-02T00:48:37Z,13.2637,12.6009,0.0,81.57885,0,1156,5.0568,13.87158,6.0368,43690,0.0,1012.502,0.0,5.39,1010.701,0,213.309823766,12.67,210.7727,4.8902,4.92179058824,1.80078
2023-06-02T01:03:35Z,13.26363,12.66866,0.0,81.34157,0,1156,3.9788,13.75409,5.7232,43690,0.0,1012.826,0.0,5.272,1011.025,0,216.018730484,12.74,215.8981,4.9392,4.89466508876,1.80078
2023-06-02T01:18:34Z,13.26357,12.8722,0.0,80.52842,0,1156,4.018,13.61176,5.978,43690,0.0,1012.826,0.0,4.763,1011.025,0,222.156610954,12.97,208.5113,4.214,4.15218461538,1.80078
2023-06-02T01:33:36Z,13.26897,13.00835,0.0,80.19039,0,1156,5.4096,13.61176,6.1348,43690,0.0,1012.826,0.0,5.037,1011.025,0,221.703903773,13.01,206.9976,4.4492,4.40665647059,1.80078
2023-06-02T01:48:38Z,13.26325,13.00702,0.0,79.47664,0,1156,2.9008,13.61176,5.8212,43690,0.0,1012.826,0.0,4.959,1011.025,0,234.685723055,13.07,229.0584,3.4888,3.38319058706,1.80078
2023-06-02T02:03:34Z,13.26379,12.59865,0.0,81.20256,0,1156,4.9196,13.63662,5.2332,43690,0.0,1013.871,0.0,5.233,1012.07,0,228.041768408,12.67,209.1274,2.6656,2.35408757101,1.80078
2023-06-02T02:18:37Z,13.26974,11.92237,0.0,84.18745,0,1156,3.1752,13.61176,5.39,43690,0.0,1013.871,0.0,4.018,1012.07,0,219.267463743,11.99,219.6733,3.7828,3.68675999941,1.80078
2023-06-02T02:33:39Z,13.26964,13.89055,0.0,88.93634,0,1156,4.704,13.51687,7.114799,43690,0.0,1013.871,0.0,7.115,1012.07,0,218.25489984,13.89,245.769,3.3614,3.53756939941,1.80078
2023-06-02T02:48:36Z,13.24726,17.51513,0.0,89.61108,0,1156,5.5664,14.1088,10.3684,43690,0.0,1013.871,0.0,9.0,1012.07,0,224.481453158,17.58,240.2258,5.684,5.56141297633,1.80078
2023-06-02T03:03:39Z,13.21771,17.54129,0.0,87.02358,0,1156,0.0392,15.16613,8.036,43690,0.0,1013.836,0.0,2.92,1012.035,0,235.308173342,17.88,14.8933,4.312,3.99321174647,1.80078
2023-06-02T03:18:36Z,13.21181,14.55782,0.0,89.6646,0,1156,2.45,15.67672,5.5664,43690,0.0,1013.836,0.0,3.371,1012.035,0,218.268832319,14.76,201.8605,0.0392,1.1623147929,1.80078
2023-06-02T03:33:38Z,13.22283,14.99833,0.0,91.69777,0,1156,0.0196,15.57957,2.842,43690,0.0,1013.836,0.0,0.039,1012.035,0,194.244893437,15.03,120.4185,0.0392,0.258143528824,1.80078
2023-06-02T03:48:35Z,13.22283,16.18436,0.0,89.73233,0,1156,0.0392,15.57957,6.664,43690,0.0,1013.836,0.0,1.215,1012.035,0,183.92849041,16.25,272.1146,0.0392,0.769734911243,1.80078
2023-06-02T04:03:38Z,13.22283,14.35448,0.0,90.68116,0,1156,3.5084,15.57957,5.7036,43690,0.0,1012.665,0.0,4.998,1010.864,0,225.768850193,14.39,225.487,2.9302,2.74561411647,1.80078
2023-06-02T04:18:36Z,13.23387,13.7784,0.0,90.27452,0,1156,0.0392,15.23842,8.0948,43690,0.0,1012.665,0.0,3.391,1010.864,0,231.2992507,13.85,208.1641,3.1948,2.96597869172,1.80078
2023-06-02T04:33:39Z,13.24491,13.74451,0.0,90.27452,0,1156,3.4496,14.82724,4.5472,43690,0.0,1012.665,0.0,2.822,1010.864,0,44.3137096698,13.85,242.4731,0.0392,0.811324705294,1.80078
2023-06-02T04:48:37Z,13.25043,13.81229,0.0,88.81738,0,1156,2.9008,14.56291,4.5472,43690,0.0,1012.665,0.0,3.332,1010.864,0,249.706160226,13.91,195.7252,1.5484,1.54120946568,1.80078
2023-06-02T05:03:40Z,13.25043,13.33918,0.0,90.3445,0,1156,4.7236,14.34828,5.4684,43690,0.0,1012.591,0.0,5.292,1010.791,0,233.71644904,13.41,252.5122,3.0478,2.98404235176,1.80078
2023-06-02T05:18:37Z,13.25212,14.15833,0.0,81.33918,0,1156,4.0572,14.20594,6.468,43690,0.0,1012.591,0.0,6.468,1010.791,0,249.428622272,14.19,31.28169,4.1552,4.01904378639,1.80078
2023-06-02T05:33:39Z,13.25265,14.1941,0.0,81.51145,0,1156,0.0392,14.20594,6.076,43690,0.0,1012.591,0.0,5.233,1010.791,0,251.429100513,14.36,208.9689,3.4692,3.15110352941,1.80078
2023-06-02T05:48:41Z,13.25261,14.49737,0.0,80.25483,0,1156,4.3904,14.27598,5.978,43690,0.0,1012.591,0.0,4.998,1010.791,0,247.703029027,14.53,203.4277,3.3026,3.11443999941,1.80078
2023-06-02T06:03:41Z,13.24019,14.35739,0.0,79.84165,0,1156,4.6844,14.49061,7.0364,43690,0.0,1012.467,0.0,3.685,1010.666,0,259.776462585,14.53,266.2343,3.3614,3.33176941176,1.80078
2023-06-02T06:18:43Z,13.23947,14.2192,0.0,83.9381,0,1156,3.234,14.6352,5.2136,43690,0.0,1012.467,0.0,3.43,1010.666,0,346.402841522,14.32,25.33494,2.9106,2.47824705529,1.80078
2023-06-02T06:33:38Z,13.23939,14.76112,0.0,86.14033,0,1156,0.0392,14.80465,4.3512,43690,0.0,1012.467,0.0,0.039,1010.666,0,342.859881324,14.96,191.2261,0.0392,0.689363313018,1.80078
2023-06-02T06:48:40Z,13.24491,11.91463,0.0,89.25791,0,1156,0.0392,14.7075,5.2332,43690,0.0,1012.467,0.0,0.039,1010.666,0,207.665236288,12.05,261.6006,0.0392,0.492651763529,1.80078
2023-06-02T07:03:41Z,13.25659,12.11967,0.0,91.63302,0,1156,0.0392,14.25339,0.0392,43690,0.0,1012.508,0.0,0.039,1010.707,0,147.384911498,12.19,93.28235,0.0392,0.0377011764706,1.80078
2023-06-02T07:18:43Z,13.26917,12.87179,0.0,92.59342,0,1156,0.0392,13.89643,0.0392,43690,0.0,1012.508,0.0,0.039,1010.707,0,181.135075344,13.04,196.0449,0.0392,0.0386235294118,1.80078